Location: Temple Hill
(37.3073°N, 88.6303°W)
Time: 15:43:21
(UTC+00:00)

DELTA 2 R/B (1) - Pass Details

Date: 23 November 2020
Orbit: 790 x 803 km, 39.6° (Epoch: 20 January)

Event Time Altitude Azimuth Distance (km) Brightness Sun altitude
Rises 22:53:58 0° 286° (WNW) 3,288 7.7 -3.5°
Reaches altitude 10° 22:56:28 10° 284° (WNW) 2,355 7.0 -3.9°
Maximum altitude 23:01:58 67° 203° (SSW) 856 4.0 -4.9°
Drops below altitude 10° 23:07:26 10° 121° (ESE) 2,343 5.7 -6.0°
Sets 23:09:55 0° 119° (ESE) 3,269 6.4 -6.4°
